Meteo pe oră la Dachnoe

Astăzi, 17 Aprilie, Sâmbătă

Timp Temperatura Precipitaţii Vânt Presiune Umiditate
00:00 +12°C° 0 mm 2 m/s 708 mmHg 64%
01:00 +10°C° 0 mm 2 m/s 708 mmHg 63%
02:00 +10°C° 0 mm 2 m/s 708 mmHg 63%
03:00 +10°C° 0 mm 2 m/s 708 mmHg 63%
04:00 +10°C° 0 mm 2 m/s 708 mmHg 63%
05:00 +10°C° 0 mm 2 m/s 708 mmHg 62%
06:00 +10°C° 0 mm 2 m/s 707 mmHg 62%
07:00 +14°C° 0 mm 2 m/s 708 mmHg 57%
08:00 +16°C° 0 mm 2 m/s 708 mmHg 51%
09:00 +18°C° 0 mm 2 m/s 708 mmHg 46%
10:00 +18°C° 0 mm 3 m/s 709 mmHg 49%
11:00 +18°C° 0 mm 3 m/s 709 mmHg 52%
12:00 +18°C° 0 mm 4 m/s 710 mmHg 55%
13:00 +17°C° 0 mm 4 m/s 710 mmHg 61%
14:00 +15°C° 0 mm 4 m/s 710 mmHg 66%
15:00 +14°C° 0 mm 4 m/s 710 mmHg 71%
16:00 +13°C° 0.1 mm 3 m/s 710 mmHg 77%
17:00 +12°C° 0.1 mm 3 m/s 710 mmHg 83%
18:00 +12°C° 0.1 mm 2 m/s 710 mmHg 89%
19:00 +12°C° 0.1 mm 2 m/s 710 mmHg 90%
20:00 +11°C° 0.1 mm 1 m/s 711 mmHg 90%
21:00 +11°C° 0.1 mm 1 m/s 711 mmHg 91%
22:00 +11°C° 0 mm 1 m/s 710 mmHg 91%
23:00 +11°C° 0 mm 1 m/s 710 mmHg 91%

Mâine, 18 Aprilie, Duminică

Timp Temperatura Precipitaţii Vânt Presiune Umiditate
00:00 +11°C° 0 mm 1 m/s 710 mmHg 91%
01:00 +11°C° 0 mm 1 m/s 710 mmHg 92%
02:00 +11°C° 0 mm 1 m/s 710 mmHg 92%
03:00 +11°C° 0 mm 1 m/s 709 mmHg 93%
04:00 +11°C° 0 mm 1 m/s 709 mmHg 93%
05:00 +11°C° 0 mm 1 m/s 709 mmHg 93%
06:00 +11°C° 0 mm 1 m/s 709 mmHg 93%
07:00 +10°C° 0 mm 2 m/s 709 mmHg 90%
08:00 +12°C° 0 mm 2 m/s 708 mmHg 87%
09:00 +13°C° 0 mm 2 m/s 708 mmHg 83%
10:00 +14°C° 0 mm 2 m/s 708 mmHg 78%
11:00 +16°C° 0 mm 2 m/s 708 mmHg 72%
12:00 +17°C° 0 mm 3 m/s 708 mmHg 67%
13:00 +17°C° 0 mm 3 m/s 708 mmHg 67%
14:00 +17°C° 0 mm 3 m/s 708 mmHg 67%
15:00 +17°C° 0 mm 3 m/s 707 mmHg 68%
16:00 +16°C° 0.4 mm 2 m/s 708 mmHg 74%
17:00 +15°C° 0.4 mm 2 m/s 708 mmHg 80%
18:00 +15°C° 0.4 mm 1 m/s 708 mmHg 85%
19:00 +14°C° 0.5 mm 1 m/s 708 mmHg 87%
20:00 +14°C° 0.5 mm 1 m/s 708 mmHg 89%
21:00 +13°C° 0.5 mm 1 m/s 709 mmHg 91%
22:00 +13°C° 0 mm 1 m/s 708 mmHg 90%
23:00 +13°C° 0 mm 1 m/s 708 mmHg 89%

Poimâine, 19 Aprilie, Luni

Timp Temperatura Precipitaţii Vânt Presiune Umiditate
00:00 +12°C° 0 mm 1 m/s 708 mmHg 89%
01:00 +12°C° 0 mm 1 m/s 707 mmHg 88%
02:00 +12°C° 0 mm 1 m/s 707 mmHg 87%
03:00 +12°C° 0 mm 1 m/s 707 mmHg 86%
04:00 +12°C° 0 mm 1 m/s 707 mmHg 85%
05:00 +12°C° 0 mm 1 m/s 707 mmHg 84%
06:00 +12°C° 0 mm 1 m/s 707 mmHg 83%
07:00 +14°C° 0 mm 1 m/s 708 mmHg 76%
08:00 +16°C° 0 mm 1 m/s 708 mmHg 70%
09:00 +19°C° 0 mm 1 m/s 708 mmHg 64%
10:00 +19°C° 0 mm 2 m/s 708 mmHg 60%
11:00 +21°C° 0 mm 2 m/s 707 mmHg 55%
12:00 +22°C° 0 mm 3 m/s 707 mmHg 51%
13:00 +22°C° 0 mm 3 m/s 707 mmHg 51%
14:00 +22°C° 0 mm 4 m/s 707 mmHg 50%
15:00 +22°C° 0 mm 4 m/s 706 mmHg 50%
16:00 +21°C° 0 mm 4 m/s 706 mmHg 54%
17:00 +20°C° 0 mm 3 m/s 706 mmHg 59%
18:00 +19°C° 0 mm 3 m/s 706 mmHg 64%
19:00 +18°C° 0 mm 2 m/s 706 mmHg 66%
20:00 +16°C° 0 mm 2 m/s 706 mmHg 68%
21:00 +15°C° 0 mm 2 m/s 705 mmHg 70%
22:00 +15°C° 0 mm 2 m/s 705 mmHg 69%
23:00 +15°C° 0 mm 2 m/s 705 mmHg 69%

20 Aprilie, Marţi

Timp Temperatura Precipitaţii Vânt Presiune Umiditate
00:00 +15°C° 0 mm 2 m/s 704 mmHg 68%
01:00 +15°C° 0 mm 2 m/s 704 mmHg 67%
02:00 +15°C° 0 mm 2 m/s 703 mmHg 67%
03:00 +15°C° 0 mm 2 m/s 703 mmHg 66%
04:00 +16°C° 0 mm 2 m/s 702 mmHg 65%
05:00 +16°C° 0 mm 2 m/s 702 mmHg 64%
06:00 +16°C° 0 mm 2 m/s 701 mmHg 63%
07:00 +19°C° 0 mm 2 m/s 701 mmHg 57%
08:00 +22°C° 0 mm 1 m/s 701 mmHg 52%
09:00 +24°C° 0 mm 1 m/s 701 mmHg 46%
10:00 +25°C° 0 mm 1 m/s 701 mmHg 44%
11:00 +26°C° 0 mm 1 m/s 701 mmHg 41%
12:00 +28°C° 0 mm 2 m/s 700 mmHg 39%
13:00 +28°C° 0 mm 2 m/s 700 mmHg 37%
14:00 +29°C° 0 mm 2 m/s 700 mmHg 35%
15:00 +30°C° 0 mm 2 m/s 700 mmHg 33%
16:00 +27°C° 0.1 mm 2 m/s 701 mmHg 44%
17:00 +24°C° 0.1 mm 2 m/s 701 mmHg 54%
18:00 +20°C° 0.1 mm 2 m/s 702 mmHg 65%
19:00 +19°C° 0.1 mm 3 m/s 703 mmHg 72%
20:00 +17°C° 0.1 mm 4 m/s 704 mmHg 79%
21:00 +14°C° 0.1 mm 5 m/s 705 mmHg 85%
22:00 +13°C° 0.7 mm 4 m/s 705 mmHg 85%
23:00 +12°C° 0.7 mm 3 m/s 706 mmHg 85%

21 Aprilie, Miercuri

Timp Temperatura Precipitaţii Vânt Presiune Umiditate
00:00 +11°C° 0.7 mm 3 m/s 707 mmHg 85%
01:00 +12°C° 0.1 mm 2 m/s 707 mmHg 83%
02:00 +11°C° 0.1 mm 1 m/s 707 mmHg 82%
03:00 +11°C° 0.1 mm 1 m/s 708 mmHg 80%
04:00 +11°C° 0 mm 1 m/s 708 mmHg 80%
05:00 +11°C° 0 mm 1 m/s 708 mmHg 80%
06:00 +10°C° 0 mm 2 m/s 708 mmHg 80%
07:00 +10°C° 0 mm 2 m/s 708 mmHg 78%
08:00 +10°C° 0 mm 2 m/s 708 mmHg 77%
09:00 +12°C° 0 mm 2 m/s 708 mmHg 76%
10:00 +11°C° 0 mm 3 m/s 708 mmHg 74%
11:00 +11°C° 0 mm 3 m/s 709 mmHg 73%
12:00 +11°C° 0 mm 3 m/s 709 mmHg 71%
13:00 +12°C° 0 mm 3 m/s 709 mmHg 69%
14:00 +12°C° 0 mm 3 m/s 709 mmHg 67%
15:00 +12°C° 0 mm 3 m/s 709 mmHg 65%
16:00 +11°C° 0 mm 3 m/s 709 mmHg 70%
17:00 +10°C° 0 mm 2 m/s 710 mmHg 74%
18:00 +9°C° 0 mm 2 m/s 710 mmHg 79%
19:00 +9°C° 0.5 mm 2 m/s 710 mmHg 82%
20:00 +10°C° 0.5 mm 1 m/s 710 mmHg 86%
21:00 +9°C° 0.5 mm 1 m/s 710 mmHg 89%
22:00 +9°C° 0.5 mm 1 m/s 710 mmHg 90%
23:00 +9°C° 0.5 mm 1 m/s 710 mmHg 91%

22 Aprilie, Joi

Timp Temperatura Precipitaţii Vânt Presiune Umiditate
00:00 +8°C° 0.5 mm 0 m/s 710 mmHg 91%
01:00 +8°C° 1 mm 0 m/s 710 mmHg 92%
02:00 +8°C° 1 mm 0 m/s 710 mmHg 93%
03:00 +8°C° 1 mm 0 m/s 710 mmHg 93%
04:00 +8°C° 1.9 mm 0 m/s 710 mmHg 94%
05:00 +9°C° 1.9 mm 1 m/s 710 mmHg 95%
06:00 +8°C° 1.9 mm 1 m/s 711 mmHg 96%
07:00 +8°C° 3.5 mm 1 m/s 711 mmHg 95%
08:00 +8°C° 3.5 mm 1 m/s 712 mmHg 94%
09:00 +8°C° 3.5 mm 1 m/s 712 mmHg 93%
10:00 +8°C° 0.9 mm 1 m/s 712 mmHg 92%
11:00 +8°C° 0.9 mm 1 m/s 713 mmHg 90%
12:00 +9°C° 0.9 mm 1 m/s 713 mmHg 89%
13:00 +9°C° 0.1 mm 1 m/s 713 mmHg 87%
14:00 +10°C° 0.1 mm 1 m/s 713 mmHg 84%
15:00 +11°C° 0.1 mm 1 m/s 713 mmHg 82%
16:00 +11°C° 0 mm 1 m/s 713 mmHg 82%
17:00 +11°C° 0 mm 1 m/s 713 mmHg 82%
18:00 +12°C° 0 mm 1 m/s 712 mmHg 82%
19:00 +11°C° 0 mm 1 m/s 713 mmHg 83%
20:00 +10°C° 0 mm 1 m/s 713 mmHg 85%
21:00 +9°C° 0 mm 1 m/s 713 mmHg 86%
22:00 +8°C° 0 mm 1 m/s 713 mmHg 86%
23:00 +8°C° 0 mm 1 m/s 713 mmHg 85%
Arată mai mult

Formular de consimțământ

Meteoprog și furnizorii noștri de servicii pot stoca și accesa date personale, precum cookies, identificatori de dispozitiv sau alte tehnologii similare pe dispozitivul dumneavoastră și procesa astfel de date pentru a personaliza conținutul și reclamele, dar și pentru a oferi caracteristici de social media și pentru a analiza traficul.

  • Stocarea și/sau accesarea informațiilor pe dispozitivul dumneavoastră

    Cookies, identificatori de dispozitiv sau alte informații pot fi stocate sau accesate pe dispozitiv în scopurile indicate mai sus.

  • Reclame și conținut personalizat, evaluarea reclamelor și a conținutului, informații despre audiențe și dezvoltarea produselor

    Reclamele și conținutul pot fi personalizate pe baza unui profil. Pot fi adăugate date suplimentare pentru a personaliza mai bine reclamele și conținutul. Performanța reclamelor și conținutului poate fi măsurată. Pot fi obținute informații despre utilizatorii care au văzut reclamele și conținutul. Aceste date pot fi utilizate pentru a dezvolta sau îmbunătăți experiența utilizatorilor, sistemele și software-ul.

Dând clic pe ‘Sunt de acord’, permiteți utilizarea cookie-urilor menționate, a identificatorilor de dispozitiv, balizelor web sau altor tehnologii similare. Setările pot fi modificate din browser-ul dispozitivului dumneavoastră.

În anumite scopuri, interesele legitime pot prima asupra consimțământului. Puteți citi mai multe informații în acest sens în Politica privind Confidențialitatea Datelor și Cookie.